カタログに戻る

BRO-31

運用中アマチュア無線SSO
NORAD 69896·PAYLOAD·🇺🇸 United States

打ち上げ Jul 7, 2026 から Vandenberg Space Force Base

Loading…

次のパス (今後24時間)

TLE

最新Source: Space-Track

元期: Sep 14, 2026, 03:33 UTC

1 69896U 26156AD  26257.14839931  .00001335  00000-0  13675-3 0  9995
2 69896  97.7450 156.4774 0006277 295.0456  65.0111 14.92142362 10266

AllMySatでBRO-31をリアルタイム追跡

Download on the App Store